Theta_e
319 320 320 321 321 322 323 323 323 323 323 324 324 324 324 325 324 310 303 310 314 330 318 307 306 304 302 301 302 297 289 286 289 290 293 294 293 295 295 294 295 299 296 297 298
319 319 319 320 320 321 321 322 322 322 322 323 323 324 324 324 311 305 317 328 332 330 307 304 301 302 298 299 300 295 287 289 292 294 292 294 294 294 297 292 294 296 295 297 298
318 318 318 318 319 319 320 321 321 321 321 322 322 323 323 320 302 300 327 333 334 324 308 305 302 301 296 297 298 296 292 294 296 298 296 295 293 296 293 293 295 296 297 296 295
317 318 318 318 318 318 319 320 320 320 321 321 321 322 323 311 290 302 331 334 332 311 306 303 300 297 295 295 298 293 297 296 298 299 296 294 295 294 294 299 298 298 296 296 295
318 318 318 317 317 318 319 319 319 319 320 320 321 322 312 298 299 312 328 328 313 307 303 300 298 297 294 294 295 294 296 298 298 298 297 296 296 295 295 298 298 297 296 296 296
318 318 318 318 318 318 319 319 319 319 319 320 320 322 302 292 303 314 313 310 306 304 301 300 298 299 296 296 295 294 296 296 297 297 297 296 295 294 300 297 297 296 296 295 296
319 318 318 318 318 318 319 319 319 319 319 320 320 318 302 297 305 310 307 305 304 303 299 300 300 297 296 294 297 296 293 293 294 296 295 295 293 292 299 295 297 296 296 295 296
319 318 318 318 318 319 319 320 320 320 320 320 321 310 294 305 304 304 303 301 302 303 302 302 302 298 296 296 294 290 289 286 291 293 293 294 289 295 296 295 296 296 294 294 296
318 318 318 318 318 318 319 320 320 319 319 322 310 301 295 309 302 304 302 301 302 302 301 305 300 295 293 288 286 284 282 284 288 294 293 291 289 294 295 293 294 294 295 295 295
319 318 318 318 318 319 319 319 318 315 317 317 312 296 298 298 303 302 301 302 299 299 297 297 294 290 289 286 282 282 282 284 284 289 289 288 289 294 296 293 294 294 294 295 296
319 319 319 319 319 320 315 303 296 294 301 297 298 296 297 302 303 300 302 301 299 295 289 292 288 286 290 290 291 284 283 284 288 291 288 289 291 293 296 295 292 294 296 298 298
319 319 319 319 319 319 305 300 298 298 291 296 297 298 301 302 297 299 302 296 295 290 290 288 285 291 290 289 288 287 286 286 290 292 287 289 289 292 294 295 297 298 298 297 299
319 319 318 318 318 309 301 299 304 302 290 293 296 295 296 301 296 297 299 295 292 289 289 288 290 293 290 287 287 285 284 287 286 288 287 285 287 289 292 294 297 298 299 299 298
319 319 318 318 310 305 301 303 304 299 285 289 291 294 297 297 292 297 297 295 290 289 289 288 291 291 288 287 288 286 289 289 287 284 282 285 280 285 288 289 291 294 296 296 297
319 319 319 317 307 305 304 303 302 294 282 293 291 299 297 291 292 292 295 293 289 288 288 286 287 286 287 289 290 287 288 287 284 282 281 281 279 284 287 286 290 294 295 296 297
317 318 318 313 309 309 308 304 300 288 283 291 291 290 290 291 292 292 292 293 291 288 288 288 289 289 289 289 290 289 285 284 282 281 278 283 282 284 284 287 289 291 293 295 296
314 315 315 315 309 309 309 304 293 285 294 289 287 289 287 287 288 288 288 287 285 281 281 283 286 288 290 286 286 286 283 277 275 274 279 281 280 287 288 289 291 292 294 294 293
311 314 314 316 312 311 309 299 286 293 293 293 290 288 287 289 289 288 284 283 286 283 281 280 283 286 288 288 286 285 285 278 271 277 282 280 279 288 290 291 291 290 291 292 292
311 313 312 314 311 311 303 291 290 295 297 296 296 292 287 288 289 286 283 283 286 287 284 280 282 285 287 287 289 282 281 286 280 268 272 282 284 291 290 289 288 290 289 290 290
302 306 307 314 312 308 297 293 295 299 299 298 292 294 286 287 286 287 286 286 287 288 290 286 282 286 285 287 286 285 285 280 278 271 270 278 279 283 288 290 291 290 291 290 290
301 297 304 312 311 300 291 291 295 300 300 296 295 293 291 292 291 290 289 290 289 288 291 289 286 286 287 283 284 281 282 283 283 282 279 277 281 292 292 292 289 288 289 290 290
297 289 307 311 297 296 292 294 297 296 299 298 297 296 294 295 293 292 292 295 295 293 291 291 287 283 286 289 286 285 285 285 281 280 282 282 283 295 295 296 295 295 296 295 292
294 293 308 306 289 291 294 294 296 295 295 295 294 295 295 292 288 291 292 296 297 296 292 291 287 282 284 286 286 285 288 288 288 286 281 278 281 294 295 295 296 296 293 291 291
291 285 293 299 299 293 291 291 291 296 296 297 295 295 291 289 292 289 290 292 291 290 294 295 289 286 280 284 287 283 285 287 287 282 282 283 285 289 291 292 294 295 297 293 293
288 284 288 286 287 291 292 290 288 287 293 294 291 292 290 285 287 287 286 286 289 291 289 287 281 284 284 284 284 283 284 285 284 286 283 285 285 289 292 293 294 295 294 289 287
284 283 287 285 286 284 288 288 287 289 290 288 288 286 286 283 284 280 279 281 280 284 282 284 277 280 277 281 282 281 284 285 286 286 285 285 284 291 285 286 286 288 285 285 286
286 289 287 282 281 280 280 283 282 283 286 288 282 281 280 282 283 283 283 282 281 279 278 277 275 271 271 277 276 271 277 279 282 284 282 279 279 281 280 280 283 282 282 282 283
Wind_Speed
13 13 13 14 14 15 14 14 14 14 13 13 14 14 14 12 7 2 6 10 5 13 6 6 2 2 3 1 3 4 3 3 6 5 5 1 3 3 1 2 3 7 4 2 5
12 13 14 14 15 15 14 14 14 15 14 14 13 13 13 11 2 7 9 5 7 14 6 7 4 4 1 1 0 4 4 8 6 4 4 3 4 3 1 3 5 5 1 3 7
11 12 14 15 15 16 15 15 14 14 14 14 13 13 11 6 4 8 0 9 14 12 6 5 5 5 2 2 4 5 7 6 7 8 4 4 3 5 5 8 9 10 9 7 8
10 12 13 14 16 15 16 16 16 15 14 14 14 14 12 1 6 3 2 8 11 7 7 5 4 4 4 5 4 3 9 6 6 5 3 4 3 6 9 18 6 13 3 8 12
8 9 12 14 15 16 17 17 17 16 15 14 13 12 3 2 11 2 7 8 6 4 6 6 5 5 5 4 2 5 5 6 8 8 7 4 11 8 12 15 10 8 7 11 12
9 10 11 12 15 16 18 18 18 16 16 13 12 8 2 5 2 6 8 6 5 4 5 5 6 7 4 5 6 2 5 7 6 6 6 6 9 3 22 6 12 9 13 11 14
9 11 12 12 14 16 18 19 19 18 16 13 9 2 2 17 2 7 8 5 5 4 3 3 3 2 0 5 3 4 8 8 7 8 10 6 11 13 25 5 12 11 11 10 17
9 10 12 13 14 17 19 20 19 18 17 11 5 3 9 2 4 5 4 3 4 4 4 2 5 3 3 3 7 5 0 5 1 6 4 8 16 17 11 7 15 13 11 11 13
10 10 12 13 15 18 21 23 19 10 3 6 4 3 10 2 2 5 5 6 6 3 3 3 4 4 2 4 5 3 6 9 13 13 6 8 12 10 4 6 12 11 11 11 13
10 11 12 13 15 18 23 20 5 2 4 2 1 2 5 7 3 4 2 7 4 5 4 4 5 2 2 5 10 9 6 7 8 6 5 6 15 14 15 9 13 13 13 13 14
10 10 12 13 14 18 13 5 5 2 2 9 7 5 4 1 2 2 3 5 4 4 6 3 5 11 23 15 16 2 6 7 13 9 4 11 19 19 18 14 14 16 18 22 20
8 9 11 11 13 18 2 4 1 2 9 7 9 9 5 2 3 2 6 7 5 7 6 2 11 19 0 4 7 10 13 19 17 20 5 18 24 21 15 18 24 24 21 22 21
9 8 9 9 12 4 2 2 1 2 3 10 7 5 5 8 8 7 10 4 5 7 10 15 9 8 8 4 10 7 8 20 18 9 6 11 19 16 15 21 25 26 25 20 21
11 8 6 9 3 2 2 1 3 1 3 9 4 5 2 4 5 1 3 6 3 12 7 9 6 11 5 7 11 16 12 15 14 5 9 2 19 7 11 12 10 19 19 14 17
9 9 5 4 2 2 1 4 4 2 8 4 3 1 0 5 4 2 2 1 7 6 6 10 5 5 7 15 10 11 3 7 2 4 7 5 6 3 7 8 14 18 16 16 16
8 6 4 3 2 2 4 4 1 2 11 5 1 2 2 3 2 2 2 3 0 3 5 10 1 6 9 6 12 3 1 1 4 1 11 13 9 4 7 9 6 6 10 12 15
7 8 6 4 3 3 4 2 0 7 1 4 1 2 2 4 3 4 5 5 6 2 5 1 5 4 5 4 2 4 6 4 5 1 15 4 8 16 6 7 9 10 11 11 9
10 5 5 2 4 5 0 3 10 7 7 2 1 1 5 7 5 3 2 4 5 1 0 1 15 7 5 9 10 10 11 9 9 15 19 4 15 17 9 8 8 6 9 9 9
14 1 2 2 7 1 2 7 7 5 6 3 7 6 5 4 6 5 7 6 7 13 9 5 12 2 5 3 7 4 7 4 1 0 1 13 18 23 11 9 3 7 7 10 9
2 3 4 8 9 3 4 15 7 8 3 2 6 7 6 4 4 5 7 5 5 10 1 4 15 7 1 1 2 7 1 3 2 4 10 11 8 20 17 15 12 10 12 9 7
3 3 3 9 6 3 12 9 8 11 7 7 11 14 6 7 9 8 4 2 3 1 6 4 7 16 4 7 10 2 5 5 3 6 15 18 14 23 25 14 12 9 9 9 9
2 3 1 8 6 4 16 14 5 14 15 6 4 13 17 13 12 14 10 11 4 2 5 7 5 7 14 7 2 3 8 9 12 12 13 20 20 24 31 25 21 23 21 11 8
2 3 1 2 8 12 8 7 13 20 17 5 8 7 5 10 10 12 14 13 11 11 5 5 4 7 11 8 2 6 13 14 18 16 21 19 12 12 20 30 33 28 13 8 9
2 3 2 4 6 7 12 18 17 5 12 12 14 13 13 17 16 14 10 4 6 5 14 8 17 25 24 21 12 8 10 9 18 14 18 21 26 21 23 26 29 30 29 11 7
1 3 1 2 7 12 13 9 16 12 6 5 6 13 9 8 15 17 2 4 3 3 3 4 6 6 16 13 11 18 22 21 23 25 28 26 28 25 27 26 22 23 18 19 17
2 1 2 4 5 6 4 15 21 16 11 16 13 4 2 4 3 2 4 1 5 3 7 2 11 14 22 25 22 22 20 25 20 23 21 25 30 24 21 23 24 16 18 18 19
1 2 1 3 2 1 4 5 2 5 5 5 7 3 4 2 3 7 8 10 13 12 17 7 5 2 20 25 17 15 25 23 21 21 19 14 10 15 17 21 13 17 18 19 18
Wind_Direction
14 13 10 6 2 0 1 0 358 356 355 352 351 349 343 335 313 188 239 218 174 159 100 109 84 105 69 81 117 123 63 245 252 187 254 173 227 182 178 233 235 213 200 309 113
7 1 359 356 353 351 351 352 351 349 346 346 346 344 339 337 296 244 246 199 150 149 111 144 161 123 45 261 121 111 149 228 218 229 260 276 201 269 297 232 254 279 238 74 137
354 351 349 347 344 341 341 342 344 341 339 337 338 336 330 335 323 248 208 177 160 162 138 144 104 125 201 153 204 181 215 218 255 232 256 261 252 221 194 263 209 216 226 171 180
336 338 341 343 343 338 335 336 334 333 333 333 333 332 320 110 298 346 105 164 155 129 115 129 122 152 199 213 198 223 245 215 257 218 243 242 267 261 191 244 199 226 171 170 192
320 322 325 330 333 334 333 331 329 326 326 328 331 333 323 34 248 141 110 110 96 116 168 155 150 158 203 208 221 230 254 242 259 276 259 307 247 245 254 253 258 245 200 205 207
308 312 314 317 323 326 325 323 320 317 316 316 320 322 152 250 252 149 128 118 136 148 173 140 203 206 222 218 183 229 259 269 277 239 249 220 269 136 268 239 249 248 238 224 214
299 306 309 312 314 317 315 315 311 306 302 300 303 271 203 234 80 144 140 162 156 150 152 197 164 164 356 296 282 290 309 308 214 228 229 155 286 231 255 187 263 247 250 239 230
291 297 303 307 311 312 312 311 305 297 291 281 227 166 243 314 109 133 158 124 131 160 143 167 159 184 194 291 357 329 326 316 318 117 252 158 264 260 259 208 257 260 261 247 245
291 293 300 306 311 313 313 313 309 304 210 155 115 153 261 134 198 196 150 154 119 85 66 105 125 184 307 92 356 316 247 233 302 200 171 189 248 273 281 200 268 275 267 262 268
292 297 302 308 314 317 320 315 292 44 81 184 272 29 270 243 184 137 139 133 124 117 74 96 54 171 43 118 230 220 222 249 242 269 190 229 253 277 280 195 241 260 269 266 266
286 295 303 310 320 323 338 356 9 346 346 197 201 227 295 6 76 89 139 99 98 95 173 195 134 205 225 207 235 201 238 238 252 260 221 236 259 258 263 275 254 251 255 259 252
274 288 299 312 324 324 6 56 70 199 304 250 250 272 247 180 240 180 138 144 154 195 127 79 217 226 54 198 217 238 259 264 275 265 222 266 262 264 255 253 258 258 256 257 261
265 271 290 316 330 19 12 356 90 133 260 290 218 205 239 155 218 208 153 143 166 174 202 218 223 218 204 209 248 220 230 260 261 307 236 281 271 249 247 250 258 265 258 262 260
256 257 280 320 2 332 300 129 82 73 322 273 256 275 200 191 236 80 201 147 224 216 201 241 238 211 143 212 214 265 226 261 272 331 271 8 293 190 235 235 235 253 267 252 259
286 282 237 142 297 312 78 103 108 56 292 258 205 320 79 169 129 357 130 79 209 194 151 244 192 159 190 223 156 242 207 242 241 227 319 204 262 200 180 240 246 251 257 263 251
334 290 168 121 100 277 119 120 86 98 252 303 61 18 55 2 9 39 85 48 88 219 246 247 335 178 221 208 179 112 86 76 57 96 270 202 188 10 166 212 262 247 251 257 271
353 330 173 155 169 80 70 16 281 232 78 257 257 148 242 230 271 190 146 188 198 249 245 311 214 245 180 238 122 129 94 309 321 3 256 149 215 251 255 218 218 245 272 279 316
336 329 223 222 132 134 81 124 236 210 236 335 121 85 210 165 236 180 139 254 249 183 319 234 288 187 170 200 190 186 167 170 214 267 275 120 258 272 223 251 243 288 277 287 312
324 214 204 222 149 211 127 220 212 200 194 243 321 276 256 272 203 136 211 229 224 183 204 195 261 232 217 174 158 181 183 214 9 78 280 265 273 287 247 245 264 262 277 279 289
315 269 218 164 147 129 226 243 244 223 284 289 238 217 210 218 186 198 199 176 229 193 81 271 293 185 121 123 185 172 282 35 19 195 240 256 260 257 278 275 284 296 283 284 297
248 257 260 134 129 191 228 234 246 231 240 232 257 258 222 246 242 235 243 262 247 206 182 198 207 265 18 207 202 135 225 205 188 201 252 261 257 272 277 283 284 276 264 286 307
276 236 190 150 199 214 235 234 215 258 270 294 286 261 258 275 266 266 240 235 202 136 255 167 207 252 261 265 207 166 233 220 235 246 236 253 247 274 284 289 287 281 292 292 273
249 272 188 239 230 226 248 248 245 252 251 218 238 216 220 258 269 247 265 288 286 293 258 191 240 266 278 269 195 208 229 233 252 268 259 260 266 264 288 294 289 290 291 256 257
298 272 267 239 245 261 247 253 251 217 245 240 251 262 267 266 261 276 281 330 349 358 341 343 257 251 255 262 284 261 276 236 237 251 265 259 273 269 265 269 282 291 293 304 301
356 253 2 236 251 258 247 282 278 270 246 241 244 244 257 276 282 269 309 342 261 32 52 45 285 317 304 309 308 313 310 294 280 285 274 278 280 287 279 283 289 301 343 29 17
162 274 343 305 320 292 255 247 264 273 270 264 268 350 32 262 302 329 18 106 257 342 10 334 275 300 293 284 281 279 271 265 270 275 273 273 276 298 16 6 355 13 20 11 0
274 310 31 258 281 241 244 268 23 0 33 46 78 10 292 358 337 283 258 242 249 268 279 252 243 250 272 282 295 271 257 267 265 265 305 315 23 21 13 0 353 24 12 359 348